Flag for Russia Weather past 2 weeks in Yekaterinburg, Russia

Now
64 °F

Sunny.


Feels Like: 64 °F
Forecast: 46 / 73 °F
Wind: 15 mph from West

Location: Ekaterinburg

Current Time: May 26, 2015 at 12:44:58 PM

Latest Report: May 26, 2015 at 12:00 PM


Visibility: 10 mi

Pressure: 30.12 "Hg

Humidity: 43%

Dew point: 41 °F

Location of YekaterinburgLocation

Historic Weather in Yekaterinburg — Graph

°F

Yekaterinburg temperature yesterday

Maximum temperature yesterday: 68 °F (at 5:00 PM)
Minimum temperature yesterday: 46 °F (at 5:30 AM)
Average temperature yesterday: 58 °F

Past Weeks' High & Low Weather Summary

 TemperatureHumidityPressure
High70 °F (May 13, 2:00 PM)100% (May 12, 4:00 AM)30.27 "Hg (May 12, 4:00 AM)
Low28 °F (May 23, 4:00 AM)11% (May 22, 7:00 PM)29.36 "Hg (May 17, 9:00 AM)
Average54 °F72%29.83 "Hg
* Reported May 11 11:00 AM — May 26 11:30 AM, Yekaterinburg, Weather by CustomWeather, © 2015

Note: Actual official high and low records may vary slightly from our data, if they occured in-between our weather recording intervals... More about our weather records

Advertising

Yekaterinburg weather history for previous 24 hours

 ConditionsComfort  
Time TempWeatherWind HumidityBarometerVisibility
11:30 AM
Tue, May 26
63 °FPassing clouds.13 mph49%30.12 "HgN/A
11:00 AM63 °FSunny.13 mph49%30.12 "Hg10 mi
10:30 AM61 °FSunny.10 mph52%30.12 "Hg10 mi
10:00 AM61 °FPassing clouds.8 mph48%30.15 "HgN/A
9:30 AM59 °FSunny.8 mph51%30.12 "Hg10 mi
9:00 AM57 °FSunny.6 mph55%30.12 "Hg10 mi
8:30 AM57 °FSunny.6 mph63%30.12 "Hg10 mi
8:00 AM55 °FPassing clouds.3 mph72%30.12 "HgN/A
7:30 AM54 °FSunny.3 mph82%30.12 "Hg10 mi
7:00 AM52 °FSunny.1 mph94%30.12 "Hg10 mi
6:30 AM48 °FSunny.1 mph100%30.12 "Hg10 mi
6:00 AM46 °FSunny.1 mph100%30.09 "Hg10 mi
5:30 AM46 °FFog.3 mph100%30.09 "HgN/A
5:00 AM43 °FFog.No wind93%30.09 "Hg6 mi
4:30 AM48 °FClear.3 mph94%30.09 "Hg10 mi
4:00 AM50 °FClear.3 mph94%30.07 "Hg10 mi
3:30 AM50 °FClear.3 mph94%30.07 "Hg10 mi
3:00 AM52 °FClear.3 mph94%30.07 "Hg10 mi
2:30 AM52 °FClear.3 mph94%30.04 "Hg10 mi
1:30 AM54 °FPassing clouds.6 mph88%30.04 "HgN/A
1:00 AM55 °FPartly cloudy.8 mph94%30.04 "HgN/A
12:30 AM55 °FPartly cloudy.8 mph94%30.04 "HgN/A
12:00 AM55 °FClear.6 mph94%30.01 "Hg10 mi
11:30 PM
Mon, May 25
55 °FPassing clouds.6 mph100%30.01 "HgN/A
11:00 PM57 °FPassing clouds.3 mph94%30.01 "HgN/A
10:30 PM57 °FPartly cloudy.6 mph88%29.98 "HgN/A
10:00 PM61 °FMostly cloudy.10 mph83%29.98 "HgN/A
9:30 PM63 °FMostly cloudy.15 mph77%29.98 "HgN/A
9:00 PM63 °FMostly cloudy.3 mph73%29.95 "HgN/A
8:30 PM63 °FMostly cloudy.3 mph73%29.95 "HgN/A
8:00 PM64 °FMostly cloudy.6 mph68%29.95 "HgN/A
7:30 PM66 °FMore clouds than sun.6 mph60%29.95 "HgN/A
7:00 PM66 °FMore clouds than sun.8 mph60%29.95 "HgN/A
6:30 PM66 °FMore clouds than sun.13 mph60%29.95 "HgN/A
6:00 PM66 °FCloudy.13 mph60%29.95 "HgN/A
5:30 PM68 °FMostly cloudy.10 mph60%29.95 "HgN/A
5:00 PM68 °FSunny.8 mph60%29.95 "Hg10 mi
4:30 PM66 °FPassing clouds.8 mph64%29.95 "HgN/A
4:00 PM66 °FBroken clouds.10 mph60%29.95 "HgN/A
3:30 PM66 °FBroken clouds.8 mph60%29.95 "HgN/A
3:00 PM66 °FBroken clouds.10 mph60%29.98 "HgN/A
2:30 PM66 °FBroken clouds.10 mph60%29.98 "HgN/A
2:00 PM64 °FSunny.10 mph60%29.98 "Hg10 mi
1:30 PM64 °FSunny.10 mph60%29.98 "Hg10 mi
1:00 PM64 °FSunny.10 mph60%30.01 "Hg10 mi
12:30 PM63 °FSunny.10 mph64%30.01 "Hg10 mi
12:00 PM61 °FSunny.10 mph68%30.01 "Hg10 mi
Weather by CustomWeather, © 2015

See weather overviewHow to use our weather pages